| time (UTC) | temp F | wind direction | speed MPH | gust MPH | rain 1hr in | rain 24hr in | rain mn in | humidity % | barometer mb |
| 20260906022759 | 0 | 92 | 0.0 | 2.0 | 0.00 | 0.01 | 0.00 | 50 | |
| 20260906022235 | 0 | 0 | 0.0 | 2.0 | 0.00 | 0.01 | 0.00 | 48 | |
| 20260906021712 | 0 | 96 | 0.0 | 2.0 | 0.00 | 0.01 | 0.00 | 49 | |
| 20260906021149 | 0 | 0 | 0.0 | 0.0 | 0.00 | 0.01 | 0.00 | 51 | |
| 20260906020626 | 0 | 0 | 0.0 | 0.0 | 0.00 | 0.01 | 0.00 | 49 | |
| 20260906015540 | 0 | 0 | 0.0 | 0.0 | 0.00 | 0.01 | 0.00 | 44 | |
| 20260906015017 | 0 | 0 | 0.0 | 0.0 | 0.00 | 0.01 | 0.00 | 43 | |
| 20260906014454 | 0 | 0 | 0.0 | 0.0 | 0.00 | 0.01 | 0.00 | 43 | |
| 20260906013931 | 0 | 0 | 0.0 | 4.0 | 0.00 | 0.01 | 0.00 | 43 | |
| 20260906013408 | 0 | 98 | 0.0 | 4.0 | 0.00 | 0.01 | 0.00 | 42 | |
| 20260906012845 | 0 | 130 | 1.0 | 3.0 | 0.00 | 0.01 | 0.00 | 46 | |
| 20260906012322 | 0 | 100 | 1.0 | 4.0 | 0.00 | 0.01 | 0.00 | 46 | |
| 20260906011759 | 0 | 131 | 0.0 | 4.0 | 0.00 | 0.01 | 0.00 | 48 | |
| 20260906011236 | 0 | 113 | 0.0 | 6.0 | 0.00 | 0.01 | 0.00 | 47 | |
| 20260906010713 | 0 | 98 | 1.0 | 6.0 | 0.00 | 0.01 | 0.00 | 46 | |
| 20260906010156 | 0 | 128 | 1.0 | 6.0 | 0.00 | 0.01 | 0.00 | 46 | |
| 20260906005627 | 0 | 121 | 4.0 | 6.0 | 0.00 | 0.01 | 0.00 | 50 | |
| 20260906005104 | 0 | 128 | 2.0 | 6.0 | 0.00 | 0.01 | 0.00 | 45 | |
| 20260906004541 | 0 | 100 | 3.0 | 6.0 | 0.00 | 0.01 | 0.00 | 43 | |
| 20260906004018 | 0 | 112 | 1.0 | 5.0 | 0.00 | 0.01 | 0.00 | 44 | |
| 20260906003455 | 0 | 121 | 1.0 | 5.0 | 0.00 | 0.01 | 0.00 | 43 | |
| 20260906002932 | 0 | 117 | 1.0 | 4.0 | 0.00 | 0.01 | 0.00 | 42 | |
| 20260906002409 | 0 | 124 | 1.0 | 3.0 | 0.00 | 0.01 | 0.00 | 43 | |
| 20260906001846 | 0 | 107 | 1.0 | 4.0 | 0.00 | 0.01 | 0.00 | 42 | |
| 20260906001323 | 0 | 151 | 0.0 | 4.0 | 0.00 | 0.01 | 0.00 | 42 | |
| 20260906000800 | 0 | 134 | 3.0 | 5.0 | 0.00 | 0.01 | 0.00 | 39 | |
| 20260906000237 | 0 | 114 | 1.0 | 5.0 | 0.00 | 0.01 | 0.00 | 39 | |
| 20260905235714 | 0 | 103 | 0.0 | 5.0 | 0.00 | 0.01 | 0.00 | 39 | |
| 20260905235151 | 0 | 102 | 1.0 | 5.0 | 0.00 | 0.01 | 0.00 | 39 | |
| 20260905234628 | 0 | 109 | 1.0 | 5.0 | 0.00 | 0.01 | 0.00 | 37 | |
| 20260905234105 | 0 | 112 | 0.0 | 5.0 | 0.00 | 0.01 | 0.00 | 41 | |
| 20260905233542 | 0 | 116 | 1.0 | 6.0 | 0.00 | 0.01 | 0.01 | 36 | |
| 20260905233019 | 0 | 126 | 1.0 | 6.0 | 0.01 | 0.01 | 0.01 | 34 | |
| 20260905232456 | 0 | 42 | 2.0 | 6.0 | 0.01 | 0.01 | 0.01 | 36 | |
| 20260905231933 | 0 | 137 | 0.0 | 4.0 | 0.01 | 0.01 | 0.01 | 39 | |
| 20260905231410 | 0 | 26 | 0.0 | 4.0 | 0.01 | 0.01 | 0.01 | 41 | |
| 20260905230847 | 0 | 30 | 1.0 | 5.0 | 0.01 | 0.01 | 0.01 | 39 | |
| 20260905230323 | 0 | 39 | 0.0 | 5.0 | 0.01 | 0.01 | 0.01 | 39 | |
| 20260905225800 | 0 | 28 | 1.0 | 4.0 | 0.01 | 0.01 | 0.01 | 37 | |
| 20260905225239 | 0 | 23 | 3.0 | 4.0 | 0.01 | 0.01 | 0.01 | 38 | |
| 20260905224714 | 0 | 110 | 2.0 | 4.0 | 0.01 | 0.01 | 0.01 | 38 | |
| 20260905224151 | 0 | 112 | 0.0 | 4.0 | 0.01 | 0.01 | 0.01 | 36 | |
| 20260905223628 | 0 | 119 | 1.0 | 7.0 | 0.01 | 0.01 | 0.01 | 39 | |
| 20260905223105 | 0 | 109 | 1.0 | 7.0 | 0.00 | 0.01 | 0.01 | 37 | |
| 20260905222542 | 0 | 107 | 4.0 | 7.0 | 0.00 | 0.01 | 0.01 | 38 | |
| 20260905222020 | 0 | 130 | 0.0 | 6.0 | 0.00 | 0.01 | 0.01 | 38 | |
| 20260905221456 | 0 | 23 | 1.0 | 6.0 | 0.00 | 0.01 | 0.01 | 35 | |
| 20260905220933 | 0 | 28 | 2.0 | 5.0 | 0.00 | 0.01 | 0.01 | 36 | |
| 20260905220410 | 0 | 145 | 3.0 | 5.0 | 0.00 | 0.01 | 0.01 | 38 | |
| 20260905215847 | 0 | 340 | 1.0 | 4.0 | 0.00 | 0.01 | 0.01 | 41 | |
| 20260905215324 | 0 | 15 | 1.0 | 7.0 | 0.00 | 0.01 | 0.01 | 46 | |
| 20260905214802 | 0 | 42 | 0.0 | 7.0 | 0.00 | 0.01 | 0.01 | 41 | |
| 20260905214238 | 0 | 53 | 0.0 | 4.0 | 0.01 | 0.01 | 0.01 | 48 | |
| 20260905213715 | 0 | 18 | 0.0 | 4.0 | 0.01 | 0.01 | 0.01 | 48 | |
| 20260905213152 | 0 | 85 | 0.0 | 4.0 | 0.01 | 0.01 | 0.01 | 47 | |
| 20260905212630 | 0 | 57 | 1.0 | 3.0 | 0.01 | 0.01 | 0.01 | 47 | |
| 20260905212106 | 0 | 71 | 0.0 | 3.0 | 0.01 | 0.01 | 0.01 | 46 | |
| 20260905211543 | 0 | 53 | 0.0 | 3.0 | 0.01 | 0.01 | 0.01 | 46 | |
| 20260905211020 | 0 | 357 | 1.0 | 3.0 | 0.01 | 0.01 | 0.01 | 46 | |
| 20260905210457 | 0 | 1 | 0.0 | 2.0 | 0.01 | 0.01 | 0.01 | 44 | |
| 20260905205935 | 0 | 56 | 1.0 | 2.0 | 0.01 | 0.01 | 0.01 | 41 | |
| 20260905205412 | 0 | 46 | 0.0 | 3.0 | 0.01 | 0.01 | 0.01 | 47 | |
| 20260905204848 | 0 | 320 | 0.0 | 3.0 | 0.01 | 0.01 | 0.01 | 48 | |
| 20260905204325 | 0 | 36 | 0.0 | 3.0 | 0.00 | 0.01 | 0.01 | 45 | |
| 20260905203802 | 0 | 260 | 0.0 | 5.0 | 0.00 | 0.01 | 0.01 | 40 | |
| 20260905203239 | 0 | 36 | 0.0 | 5.0 | 0.00 | 0.01 | 0.01 | 45 | |
| 20260905202718 | 0 | 343 | 1.0 | 5.0 | 0.00 | 0.01 | 0.01 | 43 | |
| 20260905202153 | 0 | 71 | 0.0 | 3.0 | 0.00 | 0.01 | 0.01 | 46 | |
| 20260905201630 | 0 | 266 | 0.0 | 3.0 | 0.00 | 0.01 | 0.01 | 47 | |
| 20260905201107 | 0 | 113 | 0.0 | 3.0 | 0.00 | 0.01 | 0.01 | 45 | |
| 20260905200544 | 0 | 32 | 0.0 | 6.0 | 0.00 | 0.01 | 0.01 | 42 | |
| 20260905200021 | 0 | 60 | 0.0 | 6.0 | 0.00 | 0.01 | 0.01 | 45 | |
| 20260905195459 | 0 | 51 | 2.0 | 6.0 | 0.00 | 0.01 | 0.01 | 47 | |
| 20260905194935 | 0 | 60 | 1.0 | 5.0 | 0.00 | 0.01 | 0.01 | 46 | |
| 20260905194412 | 0 | 49 | 0.0 | 5.0 | 0.00 | 0.01 | 0.01 | 46 | |
| 20260905193849 | 0 | 28 | 2.0 | 2.0 | 0.00 | 0.01 | 0.01 | 48 | |
| 20260905193327 | 0 | 67 | 0.0 | 2.0 | 0.00 | 0.01 | 0.01 | 49 | |
| 20260905192803 | 0 | 326 | 1.0 | 2.0 | 0.00 | 0.01 | 0.01 | 50 | |
| 20260905192240 | 0 | 11 | 0.0 | 2.0 | 0.00 | 0.01 | 0.01 | 46 | |
| 20260905191718 | 0 | 32 | 0.0 | 1.0 | 0.00 | 0.01 | 0.01 | 49 | |
| 20260905191154 | 0 | 149 | 0.0 | 4.0 | 0.00 | 0.01 | 0.01 | 49 | |
| 20260905190631 | 0 | 299 | 0.0 | 4.0 | 0.00 | 0.01 | 0.01 | 54 | |
| 20260905190108 | 0 | 51 | 0.0 | 4.0 | 0.00 | 0.01 | 0.01 | 49 | |
| 20260905185545 | 0 | 0 | 0.0 | 2.0 | 0.00 | 0.01 | 0.01 | 52 | |
| 20260905185022 | 0 | 60 | 0.0 | 2.0 | 0.00 | 0.01 | 0.01 | 53 | |
| 20260905184459 | 0 | 54 | 0.0 | 2.0 | 0.00 | 0.01 | 0.01 | 54 | |
| 20260905183936 | 0 | 0 | 0.0 | 2.0 | 0.00 | 0.01 | 0.01 | 57 | |
| 20260905183413 | 0 | 254 | 0.0 | 2.0 | 0.00 | 0.01 | 0.01 | 55 | |
| 20260905182850 | 0 | 0 | 0.0 | 0.0 | 0.00 | 0.01 | 0.01 | 56 | |
| 20260905182328 | 0 | 0 | 0.0 | 3.0 | 0.00 | 0.01 | 0.01 | 56 | |
| 20260905181804 | 0 | 301 | 0.0 | 3.0 | 0.00 | 0.01 | 0.01 | 44 | |
| 20260905181241 | 0 | 0 | 1.0 | 1.0 | 0.00 | 0.01 | 0.01 | 57 | |
| 20260905180718 | 0 | 0 | 0.0 | 2.0 | 0.00 | 0.01 | 0.01 | 58 | |
| 20260905180155 | 0 | 0 | 0.0 | 2.0 | 0.00 | 0.01 | 0.01 | 57 | |
| 20260905175632 | 0 | 268 | 0.0 | 2.0 | 0.00 | 0.01 | 0.01 | 57 | |
| 20260905175109 | 0 | 246 | 0.0 | 1.0 | 0.00 | 0.01 | 0.01 | 56 | |
| 20260905174546 | 0 | 0 | 0.0 | 0.0 | 0.00 | 0.01 | 0.01 | 58 | |
| 20260905174023 | 0 | 0 | 0.0 | 0.0 | 0.00 | 0.01 | 0.01 | 57 | |
| 20260905173500 | 0 | 0 | 0.0 | 0.0 | 0.00 | 0.01 | 0.01 | 60 | |
| 20260905172937 | 0 | 0 | 0.0 | 0.0 | 0.00 | 0.01 | 0.01 | 59 | |
| 20260905172414 | 0 | 0 | 0.0 | 0.0 | 0.00 | 0.01 | 0.01 | 58 | |
| 20260905171851 | 0 | 0 | 0.0 | 0.0 | 0.00 | 0.01 | 0.01 | 58 | |
| 20260905171329 | 0 | 0 | 0.0 | 0.0 | 0.00 | 0.01 | 0.01 | 57 | |
| 20260905170805 | 0 | 0 | 0.0 | 0.0 | 0.00 | 0.01 | 0.01 | 45 | |
| 20260905170242 | 0 | 0 | 0.0 | 0.0 | 0.00 | 0.01 | 0.01 | 47 | |
| 20260905165719 | 0 | 0 | 0.0 | 0.0 | 0.00 | 0.01 | 0.01 | 50 | |
| 20260905165248 | 0 | 0 | 0.0 | 0.0 | 0.00 | 0.01 | 0.01 | 46 | |
| 20260905165157 | 0 | 0 | 0.0 | 0.0 | 0.00 | 0.01 | 0.01 | 46 | |
| 20260905164633 | 0 | 0 | 0.0 | 0.0 | 0.00 | 0.01 | 0.01 | 50 | |
| 20260905164110 | 0 | 0 | 0.0 | 0.0 | 0.00 | 0.01 | 0.01 | 48 | |
| 20260905163547 | 0 | 0 | 0.0 | 0.0 | 0.00 | 0.01 | 0.01 | 51 | |
| 20260905163024 | 0 | 0 | 0.0 | 1.0 | 0.00 | 0.01 | 0.01 | 53 | |
| 20260905162501 | 0 | 0 | 0.0 | 1.0 | 0.00 | 0.01 | 0.01 | 53 | |
| 20260905161939 | 0 | 39 | 0.0 | 1.0 | 0.00 | 0.01 | 0.01 | 55 | |
| 20260905161415 | 0 | 0 | 0.0 | 0.0 | 0.00 | 0.01 | 0.01 | 57 | |
| 20260905160852 | 0 | 0 | 0.0 | 0.0 | 0.00 | 0.01 | 0.01 | 54 | |
| 20260905160329 | 0 | 0 | 0.0 | 0.0 | 0.00 | 0.01 | 0.01 | 56 | |
| 20260905155806 | 0 | 0 | 0.0 | 0.0 | 0.00 | 0.01 | 0.01 | 57 | |
| 20260905155243 | 0 | 0 | 0.0 | 0.0 | 0.00 | 0.01 | 0.01 | 57 | |
| 20260905154720 | 0 | 0 | 0.0 | 0.0 | 0.00 | 0.01 | 0.01 | 57 | |
| 20260905154158 | 0 | 0 | 0.0 | 0.0 | 0.00 | 0.01 | 0.01 | 59 | |
| 20260905153634 | 0 | 0 | 0.0 | 0.0 | 0.00 | 0.01 | 0.01 | 59 | |
| 20260905153110 | 0 | 0 | 0.0 | 0.0 | 0.00 | 0.01 | 0.01 | 62 | |
| 20260905152547 | 0 | 0 | 0.0 | 0.0 | 0.00 | 0.01 | 0.01 | 62 | |
| 20260905152025 | 0 | 0 | 0.0 | 0.0 | 0.00 | 0.01 | 0.01 | 61 | |
| 20260905151501 | 0 | 0 | 0.0 | 0.0 | 0.00 | 0.01 | 0.01 | 60 | |
| 20260905150941 | 0 | 0 | 0.0 | 0.0 | 0.00 | 0.01 | 0.01 | 61 | |
| 20260905150415 | 0 | 0 | 0.0 | 0.0 | 0.00 | 0.01 | 0.01 | 60 | |
| 20260905145852 | 0 | 0 | 0.0 | 0.0 | 0.01 | 0.01 | 0.01 | 60 | |
| 20260905145330 | 0 | 0 | 0.0 | 0.0 | 0.01 | 0.01 | 0.01 | 61 | |
| 20260905144806 | 0 | 0 | 0.0 | 0.0 | 0.01 | 0.01 | 0.01 | 60 | |
| 20260905144243 | 0 | 0 | 0.0 | 0.0 | 0.01 | 0.01 | 0.01 | 64 | |
| 20260905143720 | 0 | 0 | 0.0 | 0.0 | 0.01 | 0.01 | 0.01 | 65 | |
| 20260905143158 | 0 | 0 | 0.0 | 0.0 | 0.01 | 0.01 | 0.01 | 71 | |
| 20260905142634 | 0 | 0 | 0.0 | 0.0 | 0.01 | 0.01 | 0.01 | 70 | |
| 20260905142111 | 0 | 0 | 0.0 | 0.0 | 0.01 | 0.01 | 0.01 | 73 | |
| 20260905141548 | 0 | 0 | 0.0 | 0.0 | 0.01 | 0.01 | 0.01 | 73 | |
| 20260905141025 | 0 | 0 | 0.0 | 0.0 | 0.01 | 0.01 | 0.01 | 75 | |
| 20260905140502 | 0 | 0 | 0.0 | 0.0 | 0.01 | 0.01 | 0.01 | 100 | |
| 20260905135939 | 0 | 0 | 0.0 | 0.0 | 0.00 | 0.00 | 0.00 | ||
| 20260905135416 | 0 | 0 | 0.0 | 0.0 | 0.00 | 0.00 | 0.00 | 58 | |
| 20260905134853 | 0 | 0 | 0.0 | 0.0 | 0.00 | 0.00 | 0.00 | 59 | |
| 20260905134331 | 0 | 0 | 0.0 | 0.0 | 0.00 | 0.00 | 0.00 | 59 | |
| 20260905133807 | 0 | 0 | 0.0 | 0.0 | 0.00 | 0.00 | 0.00 | 58 | |
| 20260905133244 | 0 | 0 | 0.0 | 0.0 | 0.00 | 0.00 | 0.00 | 57 | |
| 20260905132721 | 0 | 0 | 0.0 | 0.0 | 0.00 | 0.00 | 0.00 | 57 | |
| 20260905132200 | 0 | 0 | 0.0 | 0.0 | 0.00 | 0.00 | 0.00 | 56 | |
| 20260905131635 | 0 | 0 | 0.0 | 0.0 | 0.00 | 0.00 | 0.00 | 55 | |
| 20260905131112 | 0 | 0 | 0.0 | 0.0 | 0.00 | 0.00 | 0.00 | 52 | |
| 20260905130549 | 0 | 0 | 0.0 | 0.0 | 0.00 | 0.00 | 0.00 | 51 | |
| 20260905130026 | 0 | 0 | 0.0 | 0.0 | 0.00 | 0.00 | 0.00 | 63 | |
| 20260905125503 | 0 | 0 | 0.0 | 0.0 | 0.00 | 0.00 | 0.00 | 61 | |
| 20260905124940 | 0 | 0 | 0.0 | 0.0 | 0.00 | 0.00 | 0.00 | 56 | |
| 20260905124417 | 0 | 0 | 0.0 | 0.0 | 0.00 | 0.00 | 0.00 | 61 | |
| 20260905123854 | 0 | 0 | 0.0 | 0.0 | 0.00 | 0.00 | 0.00 | 61 | |
| 20260905123331 | 0 | 0 | 0.0 | 0.0 | 0.00 | 0.00 | 0.00 | 63 | |
| 20260905122809 | 0 | 0 | 0.0 | 0.0 | 0.00 | 0.00 | 0.00 | 53 | |
| 20260905122245 | 0 | 0 | 0.0 | 0.0 | 0.00 | 0.00 | 0.00 | 64 | |
| 20260905121722 | 0 | 0 | 0.0 | 0.0 | 0.00 | 0.00 | 0.00 | 64 | |
| 20260905121159 | 0 | 0 | 0.0 | 0.0 | 0.00 | 0.00 | 0.00 | 63 | |
| 20260905120636 | 0 | 0 | 0.0 | 0.0 | 0.00 | 0.00 | 0.00 | 64 | |
| 20260905120113 | 0 | 0 | 0.0 | 0.0 | 0.00 | 0.00 | 0.00 | 64 | |
| 20260905115550 | 0 | 0 | 0.0 | 0.0 | 0.00 | 0.00 | 0.00 | 64 | |
| 20260905115029 | 0 | 0 | 0.0 | 0.0 | 0.00 | 0.00 | 0.00 | 62 | |
| 20260905114504 | 0 | 0 | 0.0 | 0.0 | 0.00 | 0.00 | 0.00 | 61 | |
| 20260905113942 | 0 | 0 | 0.0 | 0.0 | 0.00 | 0.00 | 0.00 | 60 | |
| 20260905113418 | 0 | 0 | 0.0 | 0.0 | 0.00 | 0.00 | 0.00 | 62 | |
| 20260905112855 | 0 | 0 | 0.0 | 0.0 | 0.00 | 0.00 | 0.00 | 62 | |
| 20260905112332 | 0 | 0 | 0.0 | 0.0 | 0.00 | 0.00 | 0.00 | 63 | |
| 20260905111809 | 0 | 0 | 0.0 | 0.0 | 0.00 | 0.00 | 0.00 | 62 | |
| 20260905111246 | 0 | 0 | 0.0 | 0.0 | 0.00 | 0.00 | 0.00 | 62 | |
| 20260905110723 | 0 | 0 | 0.0 | 0.0 | 0.00 | 0.00 | 0.00 | 62 | |
| 20260905110200 | 0 | 0 | 0.0 | 0.0 | 0.00 | 0.00 | 0.00 | 63 | |
| 20260905105637 | 0 | 0 | 0.0 | 0.0 | 0.00 | 0.00 | 0.00 | 62 | |
| 20260905105114 | 0 | 0 | 0.0 | 0.0 | 0.00 | 0.00 | 0.00 | 62 | |
| 20260905104551 | 0 | 0 | 0.0 | 0.0 | 0.00 | 0.00 | 0.00 | 62 | |
| 20260905104028 | 0 | 0 | 0.0 | 0.0 | 0.00 | 0.00 | 0.00 | 63 | |
| 20260905103506 | 0 | 0 | 0.0 | 0.0 | 0.00 | 0.00 | 0.00 | 64 | |
| 20260905102942 | 0 | 0 | 0.0 | 0.0 | 0.00 | 0.00 | 0.00 | 63 | |
| 20260905102419 | 0 | 0 | 0.0 | 0.0 | 0.00 | 0.00 | 0.00 | 61 | |
| 20260905101856 | 0 | 0 | 0.0 | 0.0 | 0.00 | 0.00 | 0.00 | 63 | |
| 20260905101333 | 0 | 0 | 0.0 | 0.0 | 0.00 | 0.00 | 0.00 | 62 | |
| 20260905100810 | 0 | 0 | 0.0 | 0.0 | 0.00 | 0.00 | 0.00 | 63 | |
| 20260905100247 | 0 | 0 | 0.0 | 0.0 | 0.00 | 0.00 | 0.00 | 63 | |
| 20260905095724 | 0 | 0 | 0.0 | 0.0 | 0.00 | 0.00 | 0.00 | 62 | |
| 20260905095201 | 0 | 0 | 0.0 | 0.0 | 0.00 | 0.00 | 0.00 | 64 | |
| 20260905094638 | 0 | 0 | 0.0 | 0.0 | 0.00 | 0.00 | 0.00 | 63 | |
| 20260905094115 | 0 | 0 | 0.0 | 0.0 | 0.00 | 0.00 | 0.00 | 61 | |
| 20260905093552 | 0 | 0 | 0.0 | 0.0 | 0.00 | 0.00 | 0.00 | 59 | |
| 20260905093029 | 0 | 0 | 0.0 | 0.0 | 0.00 | 0.00 | 0.00 | 59 | |
| 20260905092506 | 0 | 0 | 0.0 | 0.0 | 0.00 | 0.00 | 0.00 | 59 | |
| 20260905091943 | 0 | 0 | 0.0 | 0.0 | 0.00 | 0.00 | 0.00 | 58 | |
| 20260905091420 | 0 | 0 | 0.0 | 0.0 | 0.00 | 0.00 | 0.00 | 58 | |
| 20260905090857 | 0 | 0 | 0.0 | 0.0 | 0.00 | 0.00 | 0.00 | 58 | |
| 20260905090334 | 0 | 0 | 0.0 | 0.0 | 0.00 | 0.00 | 0.00 | 58 | |
| 20260905085811 | 0 | 0 | 0.0 | 0.0 | 0.00 | 0.00 | 0.00 | 58 | |
| 20260905085248 | 0 | 0 | 0.0 | 0.0 | 0.00 | 0.00 | 0.00 | 59 | |
| 20260905084725 | 0 | 0 | 0.0 | 0.0 | 0.00 | 0.00 | 0.00 | 58 | |
| 20260905084202 | 0 | 0 | 0.0 | 0.0 | 0.00 | 0.00 | 0.00 | 55 | |
| 20260905083639 | 0 | 0 | 0.0 | 0.0 | 0.00 | 0.00 | 0.00 | 55 | |
| 20260905083116 | 0 | 0 | 0.0 | 0.0 | 0.00 | 0.00 | 0.00 | 54 | |
| 20260905082553 | 0 | 0 | 0.0 | 0.0 | 0.00 | 0.00 | 0.00 | 53 | |
| 20260905082030 | 0 | 0 | 0.0 | 0.0 | 0.00 | 0.00 | 0.00 | 54 | |
| 20260905081507 | 0 | 0 | 0.0 | 0.0 | 0.00 | 0.00 | 0.00 | 54 | |
| 20260905080947 | 0 | 0 | 0.0 | 0.0 | 0.00 | 0.00 | 0.00 | 53 | |
| 20260905080421 | 0 | 0 | 0.0 | 0.0 | 0.00 | 0.00 | 0.00 | 52 | |
| 20260905075857 | 0 | 0 | 0.0 | 0.0 | 0.00 | 0.00 | 0.00 | 53 | |
| 20260905075334 | 0 | 0 | 0.0 | 0.0 | 0.00 | 0.00 | 0.00 | 51 | |
| 20260905074811 | 0 | 0 | 0.0 | 0.0 | 0.00 | 0.00 | 0.00 | 52 | |
| 20260905074248 | 0 | 0 | 0.0 | 0.0 | 0.00 | 0.00 | 0.00 | 59 | |
| 20260905073726 | 0 | 0 | 0.0 | 0.0 | 0.00 | 0.00 | 0.00 | 61 | |
| 20260905073203 | 0 | 0 | 0.0 | 0.0 | 0.00 | 0.00 | 0.00 | 60 | |
| 20260905072640 | 0 | 0 | 0.0 | 0.0 | 0.00 | 0.00 | 0.00 | 52 | |
| 20260905072117 | 0 | 0 | 0.0 | 0.0 | 0.00 | 0.00 | 0.00 | 52 | |
| 20260905071553 | 0 | 0 | 0.0 | 0.0 | 0.00 | 0.00 | 0.00 | 52 | |
| 20260905071030 | 0 | 0 | 0.0 | 0.0 | 0.00 | 0.00 | 0.00 | 52 | |
| 20260905070508 | 0 | 0 | 0.0 | 0.0 | 0.00 | 0.00 | 0.00 | 51 | |
| 20260905065944 | 0 | 0 | 0.0 | 0.0 | 0.00 | 0.00 | 0.00 | 51 | |
| 20260905065422 | 0 | 0 | 0.0 | 0.0 | 0.00 | 0.00 | 0.00 | 51 | |
| 20260905064858 | 0 | 0 | 0.0 | 0.0 | 0.00 | 0.00 | 0.00 | 52 | |
| 20260905064337 | 0 | 0 | 0.0 | 0.0 | 0.00 | 0.00 | 0.00 | 51 | |
| 20260905063812 | 0 | 0 | 0.0 | 0.0 | 0.00 | 0.00 | 0.00 | 51 | |
| 20260905063249 | 0 | 0 | 0.0 | 0.0 | 0.00 | 0.00 | 0.00 | 51 | |
| 20260905062728 | 0 | 0 | 0.0 | 0.0 | 0.00 | 0.00 | 0.00 | 51 | |
| 20260905062204 | 0 | 0 | 0.0 | 0.0 | 0.00 | 0.00 | 0.00 | 51 | |
| 20260905061640 | 0 | 0 | 0.0 | 0.0 | 0.00 | 0.00 | 0.00 | 55 | |
| 20260905061118 | 0 | 0 | 0.0 | 0.0 | 0.00 | 0.00 | 0.00 | 54 | |
| 20260905060554 | 0 | 0 | 0.0 | 0.0 | 0.00 | 0.00 | 0.00 | 55 | |
| 20260905060031 | 0 | 0 | 0.0 | 0.0 | 0.00 | 0.00 | 0.00 | 56 | |
| 20260905055508 | 0 | 0 | 0.0 | 0.0 | 0.00 | 0.00 | 0.00 | 53 | |
| 20260905054945 | 0 | 0 | 0.0 | 1.0 | 0.00 | 0.00 | 0.00 | 53 | |
| 20260905054422 | 0 | 0 | 0.0 | 1.0 | 0.00 | 0.00 | 0.00 | 54 | |
| 20260905053859 | 0 | 0 | 0.0 | 0.0 | 0.00 | 0.00 | 0.00 | 53 | |
| 20260905053336 | 0 | 0 | 0.0 | 0.0 | 0.00 | 0.00 | 0.00 | 53 | |
| 20260905052813 | 0 | 0 | 0.0 | 0.0 | 0.00 | 0.00 | 0.00 | 52 | |
| 20260905052250 | 0 | 0 | 0.0 | 0.0 | 0.00 | 0.00 | 0.00 | 53 | |
| 20260905051728 | 0 | 0 | 0.0 | 0.0 | 0.00 | 0.00 | 0.00 | 50 | |
| 20260905051204 | 0 | 0 | 0.0 | 3.0 | 0.00 | 0.25 | 0.00 | 53 | |
| 20260905050641 | 0 | 134 | 0.0 | 3.0 | 0.00 | 0.25 | 0.00 | 53 | |
| 20260905050119 | 0 | 121 | 2.0 | 3.0 | 0.00 | 0.25 | 0.00 | 51 | |
| 20260905045555 | 0 | 0 | 0.0 | 0.0 | 0.00 | 0.25 | 0.00 | 53 | |
| 20260905045032 | 0 | 0 | 0.0 | 0.0 | 0.00 | 0.25 | 0.00 | 54 | |
| 20260905044509 | 0 | 0 | 0.0 | 0.0 | 0.00 | 0.25 | 0.00 | 53 | |
| 20260905043946 | 0 | 0 | 0.0 | 1.0 | 0.00 | 0.26 | 0.00 | 54 | |
| 20260905043424 | 0 | 0 | 0.0 | 1.0 | 0.00 | 0.26 | 0.00 | 54 | |
| 20260905042900 | 0 | 65 | 0.0 | 1.0 | 0.00 | 0.26 | 0.00 | 56 | |
| 20260905042341 | 0 | 123 | 0.0 | 1.0 | 0.00 | 0.26 | 0.00 | 55 | |
| 20260905041814 | 0 | 0 | 0.0 | 0.0 | 0.00 | 0.26 | 0.00 | 55 | |
| 20260905041251 | 0 | 0 | 0.0 | 0.0 | 0.00 | 0.26 | 0.00 | 53 | |
| 20260905040729 | 0 | 0 | 0.0 | 0.0 | 0.00 | 0.26 | 0.00 | 49 | |
| 20260905040205 | 0 | 0 | 0.0 | 0.0 | 0.00 | 0.26 | 0.00 | 52 | |
| 20260905035642 | 0 | 0 | 0.0 | 0.0 | 0.00 | 0.26 | 0.00 | 48 | |
| 20260905035119 | 0 | 0 | 0.0 | 0.0 | 0.00 | 0.26 | 0.00 | 52 | |
| 20260905034559 | 0 | 0 | 0.0 | 0.0 | 0.00 | 0.26 | 0.00 | 51 | |
| 20260905034033 | 0 | 0 | 0.0 | 0.0 | 0.00 | 0.30 | 0.00 | 53 | |
| 20260905033510 | 0 | 0 | 0.0 | 0.0 | 0.00 | 0.30 | 0.00 | 54 | |
| 20260905032948 | 0 | 0 | 0.0 | 0.0 | 0.00 | 0.30 | 0.00 | 54 | |
| 20260905032426 | 0 | 0 | 0.0 | 0.0 | 0.00 | 0.30 | 0.00 | 52 | |
| 20260905031901 | 0 | 0 | 0.0 | 0.0 | 0.00 | 0.30 | 0.00 | 52 | |
| 20260905031338 | 0 | 0 | 0.0 | 0.0 | 0.00 | 0.30 | 0.00 | 54 | |
| 20260905030815 | 0 | 0 | 0.0 | 0.0 | 0.00 | 0.30 | 0.00 | 54 | |
| 20260905030252 | 0 | 0 | 0.0 | 0.0 | 0.00 | 0.30 | 0.00 | 50 | |
| 20260905025729 | 0 | 0 | 0.0 | 0.0 | 0.00 | 0.30 | 0.00 | 59 | |
| 20260905025206 | 0 | 0 | 0.0 | 0.0 | 0.00 | 0.30 | 0.00 | 59 | |
| 20260905024643 | 0 | 0 | 0.0 | 3.0 | 0.00 | 0.30 | 0.00 | 58 | |
| 20260905024120 | 0 | 113 | 0.0 | 3.0 | 0.00 | 0.38 | 0.00 | 59 | |
| 20260905023558 | 0 | 113 | 0.0 | 3.0 | 0.00 | 0.38 | 0.00 | 60 |